Time,TemperatureF,DewpointF,PressureIn,WindDirection,WindDirectionDegrees,WindSpeedMPH,WindSpeedGustMPH,Humidity,HourlyPrecipIn,Conditions,Clouds,dailyrainin,SoftwareType,DateUTC
2013-03-08 00:00:00,24.8,18.3,30.40,NW,315,0.0,0.0,76,0.00,,,0.00,VWS V14.01,2013-03-08 05:00:00,
2013-03-08 00:30:00,23.9,18.0,30.41,NW,315,0.0,0.0,78,0.00,,,0.00,VWS V14.01,2013-03-08 05:30:00,
2013-03-08 01:00:00,23.0,17.5,30.42,NW,315,0.0,0.0,79,0.00,,,0.00,VWS V14.01,2013-03-08 06:00:00,
2013-03-08 01:30:00,22.3,17.4,30.43,NW,315,0.0,0.0,81,0.00,,,0.00,VWS V14.01,2013-03-08 06:30:00,
2013-03-08 02:00:00,21.7,17.1,30.44,NW,315,0.0,0.0,82,0.00,,,0.00,VWS V14.01,2013-03-08 07:00:00,
2013-03-08 02:30:00,21.2,16.9,30.44,NW,315,0.0,0.0,83,0.00,,,0.00,VWS V14.01,2013-03-08 07:30:00,
2013-03-08 03:00:00,20.4,16.4,30.44,NW,315,0.0,0.0,84,0.00,,,0.00,VWS V14.01,2013-03-08 08:00:00,
2013-03-08 03:30:00,20.2,16.4,30.45,NW,315,0.0,0.0,85,0.00,,,0.00,VWS V14.01,2013-03-08 08:30:00,
2013-03-08 04:00:00,19.7,15.9,30.46,NW,315,0.0,0.0,85,0.00,,,0.00,VWS V14.01,2013-03-08 09:00:00,
2013-03-08 04:30:00,19.8,16.0,30.46,NW,315,0.0,0.0,85,0.00,,,0.00,VWS V14.01,2013-03-08 09:30:00,
2013-03-08 05:00:00,19.9,16.1,30.46,NW,315,0.0,0.0,85,0.00,,,0.00,VWS V14.01,2013-03-08 10:00:00,
2013-03-08 05:30:00,19.8,16.0,30.46,NW,315,0.0,0.0,85,0.00,,,0.00,VWS V14.01,2013-03-08 10:30:00,
2013-03-08 06:00:00,19.3,15.8,30.48,NW,315,0.0,0.0,86,0.00,,,0.00,VWS V14.01,2013-03-08 11:00:00,
2013-03-08 06:30:00,18.9,15.4,30.49,NW,315,0.0,0.0,86,0.00,,,0.00,VWS V14.01,2013-03-08 11:30:00,
2013-03-08 07:00:00,19.2,15.7,30.49,NW,315,0.0,0.0,86,0.00,,,0.00,VWS V14.01,2013-03-08 12:00:00,
2013-03-08 07:30:00,20.5,17.2,30.49,NW,315,0.0,0.0,87,0.00,,,0.00,VWS V14.01,2013-03-08 12:30:00,
2013-03-08 08:00:00,23.3,20.0,30.50,NW,315,0.0,0.0,87,0.00,,,0.00,VWS V14.01,2013-03-08 13:00:00,
2013-03-08 08:30:00,26.9,22.4,30.51,NW,315,0.0,2.0,83,0.00,,,0.00,VWS V14.01,2013-03-08 13:30:00,
2013-03-08 09:00:00,29.1,22.8,30.50,NW,315,0.0,3.0,77,0.00,,,0.00,VWS V14.01,2013-03-08 14:00:00,
2013-03-08 09:30:00,31.5,23.5,30.50,West,270,0.0,3.0,72,0.00,,,0.00,VWS V14.01,2013-03-08 14:30:00,
2013-03-08 10:00:00,33.7,23.6,30.50,North,0,0.0,3.0,66,0.00,,,0.00,VWS V14.01,2013-03-08 15:00:00,
2013-03-08 10:30:00,36.6,25.2,30.50,NNW,338,0.0,4.0,63,0.00,,,0.00,VWS V14.01,2013-03-08 15:30:00,
2013-03-08 11:00:00,38.9,25.4,30.48,WNW,292,0.0,4.0,58,0.00,,,0.00,VWS V14.01,2013-03-08 16:00:00,
2013-03-08 11:30:00,39.8,25.8,30.48,NNW,338,0.0,3.0,57,0.00,,,0.00,VWS V14.01,2013-03-08 16:30:00,
2013-03-08 12:00:00,40.7,27.5,30.48,SSE,158,0.0,4.0,59,0.00,,,0.00,VWS V14.01,2013-03-08 17:00:00,
2013-03-08 12:30:00,41.1,27.0,30.47,NNE,22,0.0,3.0,57,0.00,,,0.00,VWS V14.01,2013-03-08 17:30:00,
2013-03-08 13:00:00,41.3,27.2,30.45,NNE,22,0.0,4.0,57,0.00,,,0.00,VWS V14.01,2013-03-08 18:00:00,
2013-03-08 13:30:00,41.7,26.7,30.45,SSW,202,1.0,3.0,55,0.00,,,0.00,VWS V14.01,2013-03-08 18:30:00,
2013-03-08 14:00:00,42.9,27.4,30.43,SSW,202,0.0,4.0,54,0.00,,,0.00,VWS V14.01,2013-03-08 19:00:00,
2013-03-08 14:30:00,42.0,27.5,30.43,SSE,158,1.0,5.0,56,0.00,,,0.00,VWS V14.01,2013-03-08 19:30:00,
2013-03-08 15:00:00,42.2,27.6,30.43,SSW,202,1.0,5.0,56,0.00,,,0.00,VWS V14.01,2013-03-08 20:00:00,
2013-03-08 15:30:00,42.4,27.0,30.43,SSE,158,1.0,4.0,54,0.00,,,0.00,VWS V14.01,2013-03-08 20:30:00,
2013-03-08 16:00:00,42.2,27.6,30.43,SSE,158,1.0,4.0,56,0.00,,,0.00,VWS V14.01,2013-03-08 21:00:00,
2013-03-08 16:30:00,42.0,27.5,30.43,SSE,158,1.0,4.0,56,0.00,,,0.00,VWS V14.01,2013-03-08 21:30:00,
2013-03-08 17:00:00,41.4,27.3,30.43,SSE,158,0.0,3.0,57,0.00,,,0.00,VWS V14.01,2013-03-08 22:00:00,
2013-03-08 17:30:00,40.4,27.2,30.43,SSE,158,0.0,1.0,59,0.00,,,0.00,VWS V14.01,2013-03-08 22:30:00,
2013-03-08 18:00:00,38.4,26.1,30.43,SSE,158,0.0,0.0,61,0.00,,,0.00,VWS V14.01,2013-03-08 23:00:00,
2013-03-08 18:30:00,36.6,25.2,30.43,SSE,158,0.0,0.0,63,0.00,,,0.00,VWS V14.01,2013-03-08 23:30:00,
2013-03-08 19:00:00,35.5,24.9,30.42,SSE,158,0.0,0.0,65,0.00,,,0.00,VWS V14.01,2013-03-09 00:00:00,
2013-03-08 19:30:00,33.5,24.4,30.43,SSE,158,0.0,0.0,69,0.00,,,0.00,VWS V14.01,2013-03-09 00:30:00,
2013-03-08 20:00:00,32.1,24.4,30.44,SSE,158,0.0,0.0,73,0.00,,,0.00,VWS V14.01,2013-03-09 01:00:00,
2013-03-08 20:30:00,30.8,23.8,30.43,SSE,158,0.0,0.0,75,0.00,,,0.00,VWS V14.01,2013-03-09 01:30:00,
2013-03-08 21:00:00,29.9,24.2,30.43,SSE,158,0.0,0.0,79,0.00,,,0.00,VWS V14.01,2013-03-09 02:00:00,
2013-03-08 21:30:00,29.0,23.9,30.44,SSE,158,0.0,2.0,81,0.00,,,0.00,VWS V14.01,2013-03-09 02:30:00,
2013-03-08 22:00:00,28.4,23.3,30.44,SSE,158,0.0,1.0,81,0.00,,,0.00,VWS V14.01,2013-03-09 03:00:00,
2013-03-08 22:30:00,28.5,23.4,30.43,SSE,158,0.0,0.0,81,0.00,,,0.00,VWS V14.01,2013-03-09 03:30:00,
2013-03-08 23:00:00,27.7,22.9,30.42,SSE,158,0.0,0.0,82,0.00,,,0.00,VWS V14.01,2013-03-09 04:00:00,
2013-03-08 23:30:00,27.2,22.7,30.41,SSE,158,0.0,0.0,83,0.00,,,0.00,VWS V14.01,2013-03-09 04:30:00,